Time,TemperatureF,DewpointF,PressureIn,WindDirection,WindDirectionDegrees,WindSpeedMPH,WindSpeedGustMPH,Humidity,HourlyPrecipIn,Conditions,Clouds,dailyrainin,SoftwareType,DateUTC
2013-08-14 00:01:00,65.2,7.2,30.09,ENE,68,0.7,2.2,1,0.00,,,0.00,WUHU216HW,2013-08-14 05:01:00,
2013-08-14 00:06:00,65.2,7.2,30.09,ENE,68,0.7,2.5,1,0.00,,,0.00,WUHU216HW,2013-08-14 05:06:00,
2013-08-14 00:11:00,65.2,7.2,30.09,NE,45,0.4,2.5,1,0.00,,,0.00,WUHU216HW,2013-08-14 05:11:00,
2013-08-14 00:16:00,65.0,7.1,30.09,ENE,68,1.1,2.7,1,0.00,,,0.00,WUHU216HW,2013-08-14 05:16:00,
2013-08-14 00:21:00,65.0,7.1,30.09,East,90,0.4,2.7,1,0.00,,,0.00,WUHU216HW,2013-08-14 05:21:00,
2013-08-14 00:26:00,65.0,7.1,30.09,East,90,0.4,2.0,1,0.00,,,0.00,WUHU216HW,2013-08-14 05:26:00,
2013-08-14 00:31:00,64.8,6.9,30.09,ENE,68,1.8,2.0,1,0.00,,,0.00,WUHU216HW,2013-08-14 05:31:00,
2013-08-14 00:36:00,64.8,6.9,30.09,East,90,0.9,3.4,1,0.00,,,0.00,WUHU216HW,2013-08-14 05:36:00,
2013-08-14 00:41:00,64.8,6.9,30.09,East,90,0.0,3.4,1,0.00,,,0.00,WUHU216HW,2013-08-14 05:41:00,
2013-08-14 00:46:00,65.0,7.1,30.09,ENE,68,0.2,3.1,1,0.00,,,0.00,WUHU216HW,2013-08-14 05:46:00,
2013-08-14 00:51:00,65.0,7.1,30.09,East,90,1.1,3.1,1,0.00,,,0.00,WUHU216HW,2013-08-14 05:51:00,
2013-08-14 00:56:00,65.2,7.2,30.09,NNE,23,1.1,2.9,1,0.00,,,0.00,WUHU216HW,2013-08-14 05:56:00,
2013-08-14 01:01:00,65.2,7.2,30.10,NNE,23,1.8,2.9,1,0.00,,,0.00,WUHU216HW,2013-08-14 06:01:00,
2013-08-14 01:06:00,65.2,7.2,30.10,NE,45,0.2,2.0,1,0.00,,,0.00,WUHU216HW,2013-08-14 06:06:00,
2013-08-14 01:11:00,65.0,7.1,30.10,ENE,68,1.6,1.8,1,0.00,,,0.00,WUHU216HW,2013-08-14 06:11:00,
2013-08-14 01:16:00,65.0,7.1,30.10,ESE,113,1.6,2.5,1,0.00,,,0.00,WUHU216HW,2013-08-14 06:16:00,
2013-08-14 01:21:00,65.0,7.1,30.10,East,90,1.1,2.5,1,0.00,,,0.00,WUHU216HW,2013-08-14 06:21:00,
2013-08-14 01:26:00,65.0,7.1,30.09,SE,135,1.6,3.1,1,0.00,,,0.00,WUHU216HW,2013-08-14 06:26:00,
2013-08-14 01:31:00,65.0,7.1,30.09,SE,135,1.1,3.4,1,0.00,,,0.00,WUHU216HW,2013-08-14 06:31:00,
2013-08-14 01:36:00,64.8,6.9,30.09,East,90,0.0,3.4,1,0.00,,,0.00,WUHU216HW,2013-08-14 06:36:00,
2013-08-14 01:41:00,64.6,6.9,30.09,East,90,1.6,1.6,1,0.00,,,0.00,WUHU216HW,2013-08-14 06:41:00,
2013-08-14 01:46:00,64.6,6.9,30.09,East,90,1.8,2.7,1,0.00,,,0.00,WUHU216HW,2013-08-14 06:46:00,
2013-08-14 01:51:00,64.4,6.7,30.09,SE,135,2.2,4.0,1,0.00,,,0.00,WUHU216HW,2013-08-14 06:51:00,
2013-08-14 01:56:00,64.4,6.7,30.09,East,90,1.1,4.0,1,0.00,,,0.00,WUHU216HW,2013-08-14 06:56:00,
2013-08-14 02:01:00,64.3,6.6,30.09,ESE,113,2.0,2.5,1,0.00,,,0.00,WUHU216HW,2013-08-14 07:01:00,
2013-08-14 02:06:00,64.3,6.6,30.09,ESE,113,2.0,2.7,1,0.00,,,0.00,WUHU216HW,2013-08-14 07:06:00,
2013-08-14 02:11:00,64.3,6.6,30.09,ENE,68,0.4,2.7,1,0.00,,,0.00,WUHU216HW,2013-08-14 07:11:00,
2013-08-14 02:16:00,64.1,6.4,30.09,NNE,23,2.2,2.2,1,0.00,,,0.00,WUHU216HW,2013-08-14 07:16:00,
2013-08-14 02:21:00,63.9,6.3,30.09,ENE,68,1.3,2.5,1,0.00,,,0.00,WUHU216HW,2013-08-14 07:21:00,
2013-08-14 02:26:00,63.9,6.3,30.09,East,90,1.3,2.5,1,0.00,,,0.00,WUHU216HW,2013-08-14 07:26:00,
2013-08-14 02:31:00,63.9,6.3,30.09,ESE,113,2.2,2.5,1,0.00,,,0.00,WUHU216HW,2013-08-14 07:31:00,
2013-08-14 02:36:00,63.7,6.1,30.09,ESE,113,1.8,2.2,1,0.00,,,0.00,WUHU216HW,2013-08-14 07:36:00,
2013-08-14 02:41:00,63.7,6.1,30.09,East,90,0.4,3.6,1,0.00,,,0.00,WUHU216HW,2013-08-14 07:41:00,
2013-08-14 02:46:00,63.7,6.1,30.09,NE,45,0.7,3.6,1,0.00,,,0.00,WUHU216HW,2013-08-14 07:46:00,
2013-08-14 02:51:00,63.5,6.0,30.09,East,90,2.2,2.7,1,0.00,,,0.00,WUHU216HW,2013-08-14 07:51:00,
2013-08-14 02:56:00,63.4,6.0,30.09,ESE,113,0.9,2.2,1,0.00,,,0.00,WUHU216HW,2013-08-14 07:56:00,
2013-08-14 03:01:00,63.0,5.7,30.09,ENE,68,1.3,2.7,1,0.00,,,0.00,WUHU216HW,2013-08-14 08:01:00,
2013-08-14 03:06:00,62.8,5.5,30.09,ESE,113,1.6,2.9,1,0.00,,,0.00,WUHU216HW,2013-08-14 08:06:00,
2013-08-14 03:11:00,62.6,5.4,30.09,ENE,68,0.9,2.9,1,0.00,,,0.00,WUHU216HW,2013-08-14 08:11:00,
2013-08-14 03:16:00,62.3,5.1,30.09,NE,45,1.1,2.9,1,0.00,,,0.00,WUHU216HW,2013-08-14 08:16:00,
2013-08-14 03:21:00,62.3,5.1,30.09,ENE,68,2.0,2.5,1,0.00,,,0.00,WUHU216HW,2013-08-14 08:21:00,
2013-08-14 03:26:00,62.1,5.0,30.09,NE,45,0.4,3.6,1,0.00,,,0.00,WUHU216HW,2013-08-14 08:26:00,
2013-08-14 03:31:00,61.9,4.9,30.09,ENE,68,1.3,3.6,1,0.00,,,0.00,WUHU216HW,2013-08-14 08:31:00,
2013-08-14 03:36:00,61.9,4.9,30.09,East,90,1.6,3.1,1,0.00,,,0.00,WUHU216HW,2013-08-14 08:36:00,
2013-08-14 03:41:00,62.1,5.0,30.09,ENE,68,2.7,4.3,1,0.00,,,0.00,WUHU216HW,2013-08-14 08:41:00,
2013-08-14 03:46:00,61.9,4.9,30.09,NE,45,3.1,4.3,1,0.00,,,0.00,WUHU216HW,2013-08-14 08:46:00,
2013-08-14 03:51:00,62.1,5.0,30.09,ESE,113,1.6,5.6,1,0.00,,,0.00,WUHU216HW,2013-08-14 08:51:00,
2013-08-14 03:56:00,62.3,5.1,30.09,ENE,68,1.8,5.6,1,0.00,,,0.00,WUHU216HW,2013-08-14 08:56:00,
2013-08-14 04:01:00,62.1,5.0,30.09,ESE,113,0.9,4.5,1,0.00,,,0.00,WUHU216HW,2013-08-14 09:01:00,
2013-08-14 04:06:00,61.9,4.9,30.09,ESE,113,1.8,3.6,1,0.00,,,0.00,WUHU216HW,2013-08-14 09:06:00,
2013-08-14 04:11:00,61.6,4.5,30.10,ENE,68,0.4,3.1,1,0.00,,,0.00,WUHU216HW,2013-08-14 09:11:00,
2013-08-14 04:16:00,61.4,4.4,30.09,East,90,1.3,1.8,1,0.00,,,0.00,WUHU216HW,2013-08-14 09:16:00,
2013-08-14 04:21:00,61.2,4.2,30.09,East,90,1.6,3.1,1,0.00,,,0.00,WUHU216HW,2013-08-14 09:21:00,
2013-08-14 04:26:00,61.0,4.2,30.09,ENE,68,2.5,3.1,1,0.00,,,0.00,WUHU216HW,2013-08-14 09:26:00,
2013-08-14 04:31:00,60.8,4.0,30.09,East,90,0.7,2.5,1,0.00,,,0.00,WUHU216HW,2013-08-14 09:31:00,
2013-08-14 04:36:00,60.8,4.0,30.10,NNE,23,0.7,2.5,1,0.00,,,0.00,WUHU216HW,2013-08-14 09:36:00,
2013-08-14 04:41:00,60.8,4.0,30.10,ENE,68,1.1,2.0,1,0.00,,,0.00,WUHU216HW,2013-08-14 09:41:00,
2013-08-14 04:46:00,60.8,4.0,30.10,ENE,68,1.1,2.0,1,0.00,,,0.00,WUHU216HW,2013-08-14 09:46:00,
2013-08-14 04:51:00,60.7,3.8,30.10,NE,45,0.0,1.8,1,0.00,,,0.00,WUHU216HW,2013-08-14 09:51:00,
2013-08-14 04:56:00,60.5,3.7,30.11,NNE,23,0.4,1.6,1,0.00,,,0.00,WUHU216HW,2013-08-14 09:56:00,
2013-08-14 05:01:00,60.5,3.7,30.11,NNE,23,0.0,1.6,1,0.00,,,0.00,WUHU216HW,2013-08-14 10:01:00,
2013-08-14 05:06:00,60.3,3.5,30.11,North,0,0.0,1.6,1,0.00,,,0.00,WUHU216HW,2013-08-14 10:06:00,
2013-08-14 05:11:00,60.1,3.4,30.11,NE,45,1.1,1.8,1,0.00,,,0.00,WUHU216HW,2013-08-14 10:11:00,
2013-08-14 05:16:00,60.1,3.4,30.11,ENE,68,4.3,4.3,1,0.00,,,0.00,WUHU216HW,2013-08-14 10:16:00,
2013-08-14 05:21:00,60.1,3.4,30.11,ENE,68,2.0,4.3,1,0.00,,,0.00,WUHU216HW,2013-08-14 10:21:00,
2013-08-14 05:26:00,60.3,3.5,30.11,East,90,2.2,5.1,1,0.00,,,0.00,WUHU216HW,2013-08-14 10:26:00,
2013-08-14 05:31:00,60.5,3.7,30.11,ESE,113,1.6,5.1,1,0.00,,,0.00,WUHU216HW,2013-08-14 10:31:00,
2013-08-14 05:36:00,60.5,3.7,30.11,East,90,0.7,3.8,1,0.00,,,0.00,WUHU216HW,2013-08-14 10:36:00,
2013-08-14 05:41:00,60.5,3.7,30.11,East,90,3.4,3.8,1,0.00,,,0.00,WUHU216HW,2013-08-14 10:41:00,
2013-08-14 05:46:00,60.5,3.7,30.11,ENE,68,4.7,4.7,1,0.00,,,0.00,WUHU216HW,2013-08-14 10:46:00,
2013-08-14 05:51:00,60.5,3.7,30.12,East,90,3.4,4.7,1,0.00,,,0.00,WUHU216HW,2013-08-14 10:51:00,
2013-08-14 05:56:00,60.3,3.5,30.11,ENE,68,1.1,4.7,1,0.00,,,0.00,WUHU216HW,2013-08-14 10:56:00,
2013-08-14 06:01:00,60.1,3.4,30.11,East,90,2.9,3.1,1,0.00,,,0.00,WUHU216HW,2013-08-14 11:01:00,
2013-08-14 06:06:00,59.9,3.2,30.12,East,90,0.7,3.1,1,0.00,,,0.00,WUHU216HW,2013-08-14 11:06:00,
2013-08-14 06:11:00,59.8,3.1,30.12,NE,45,1.1,3.8,1,0.00,,,0.00,WUHU216HW,2013-08-14 11:11:00,
2013-08-14 06:16:00,59.8,3.1,30.12,ESE,113,0.0,3.8,1,0.00,,,0.00,WUHU216HW,2013-08-14 11:16:00,
2013-08-14 06:21:00,59.8,3.1,30.12,ENE,68,1.8,3.4,1,0.00,,,0.00,WUHU216HW,2013-08-14 11:21:00,
2013-08-14 06:26:00,59.6,3.0,30.12,East,90,0.7,3.4,1,0.00,,,0.00,WUHU216HW,2013-08-14 11:26:00,
2013-08-14 06:31:00,59.6,3.0,30.12,East,90,0.4,3.1,1,0.00,,,0.00,WUHU216HW,2013-08-14 11:31:00,
2013-08-14 06:36:00,59.6,3.0,30.12,SE,135,1.1,2.5,1,0.00,,,0.00,WUHU216HW,2013-08-14 11:36:00,
2013-08-14 06:41:00,59.6,3.0,30.12,East,90,0.9,2.7,1,0.00,,,0.00,WUHU216HW,2013-08-14 11:41:00,
2013-08-14 06:46:00,59.6,3.0,30.12,ESE,113,0.7,2.7,1,0.00,,,0.00,WUHU216HW,2013-08-14 11:46:00,
2013-08-14 06:51:00,59.4,2.8,30.12,ESE,113,1.8,2.2,1,0.00,,,0.00,WUHU216HW,2013-08-14 11:51:00,
2013-08-14 06:56:00,59.4,2.8,30.12,East,90,1.1,2.2,1,0.00,,,0.00,WUHU216HW,2013-08-14 11:56:00,
2013-08-14 07:01:00,59.6,3.0,30.12,ESE,113,1.6,2.7,1,0.00,,,0.00,WUHU216HW,2013-08-14 12:01:00,
2013-08-14 07:06:00,59.8,3.1,30.12,ENE,68,1.1,3.4,1,0.00,,,0.00,WUHU216HW,2013-08-14 12:06:00,
2013-08-14 07:11:00,59.9,3.2,30.12,ENE,68,2.0,3.4,1,0.00,,,0.00,WUHU216HW,2013-08-14 12:11:00,
2013-08-14 07:16:00,59.9,3.2,30.13,ENE,68,0.4,3.4,1,0.00,,,0.00,WUHU216HW,2013-08-14 12:16:00,
2013-08-14 07:21:00,60.1,3.4,30.13,ESE,113,2.9,3.4,1,0.00,,,0.00,WUHU216HW,2013-08-14 12:21:00,
2013-08-14 07:26:00,60.3,3.5,30.13,ENE,68,1.6,4.0,1,0.00,,,0.00,WUHU216HW,2013-08-14 12:26:00,
2013-08-14 07:31:00,60.5,3.7,30.13,ESE,113,2.0,4.0,1,0.00,,,0.00,WUHU216HW,2013-08-14 12:31:00,
2013-08-14 07:36:00,60.7,3.8,30.13,ESE,113,1.8,3.6,1,0.00,,,0.00,WUHU216HW,2013-08-14 12:36:00,
2013-08-14 07:41:00,61.0,4.2,30.13,ENE,68,2.2,4.0,1,0.00,,,0.00,WUHU216HW,2013-08-14 12:41:00,
2013-08-14 07:46:00,61.7,4.7,30.13,SE,135,2.5,4.7,1,0.00,,,0.00,WUHU216HW,2013-08-14 12:46:00,
2013-08-14 07:51:00,62.1,5.0,30.13,NE,45,3.1,4.7,1,0.00,,,0.00,WUHU216HW,2013-08-14 12:51:00,
2013-08-14 07:56:00,63.7,6.1,30.13,SE,135,2.7,4.0,1,0.00,,,0.00,WUHU216HW,2013-08-14 12:56:00,
2013-08-14 08:01:00,64.3,6.6,30.13,SE,135,1.8,5.8,1,0.00,,,0.00,WUHU216HW,2013-08-14 13:01:00,
2013-08-14 08:06:00,65.2,7.2,30.13,East,90,4.7,5.8,1,0.00,,,0.00,WUHU216HW,2013-08-14 13:06:00,
2013-08-14 08:11:00,66.1,7.9,30.14,East,90,4.3,5.4,1,0.00,,,0.00,WUHU216HW,2013-08-14 13:11:00,
2013-08-14 08:16:00,66.6,8.4,30.14,ESE,113,3.4,6.0,1,0.00,,,0.00,WUHU216HW,2013-08-14 13:16:00,
2013-08-14 08:21:00,67.0,8.6,30.14,ENE,68,4.5,6.0,1,0.00,,,0.00,WUHU216HW,2013-08-14 13:21:00,
2013-08-14 08:26:00,67.3,9.0,30.14,East,90,3.4,7.6,1,0.00,,,0.00,WUHU216HW,2013-08-14 13:26:00,
2013-08-14 08:31:00,67.7,9.3,30.14,East,90,2.5,7.6,1,0.00,,,0.00,WUHU216HW,2013-08-14 13:31:00,
2013-08-14 08:36:00,68.8,10.1,30.14,East,90,7.8,7.8,1,0.00,,,0.00,WUHU216HW,2013-08-14 13:36:00,
2013-08-14 08:41:00,68.6,9.9,30.14,ESE,113,6.7,7.8,1,0.00,,,0.00,WUHU216HW,2013-08-14 13:41:00,
2013-08-14 08:46:00,68.9,10.2,30.14,SE,135,3.1,7.8,1,0.00,,,0.00,WUHU216HW,2013-08-14 13:46:00,
2013-08-14 08:51:00,69.5,10.5,30.14,SE,135,4.0,6.7,1,0.00,,,0.00,WUHU216HW,2013-08-14 13:51:00,
2013-08-14 08:56:00,69.5,10.5,30.14,SE,135,5.4,7.6,1,0.00,,,0.00,WUHU216HW,2013-08-14 13:56:00,
2013-08-14 09:01:00,69.8,10.8,30.14,ENE,68,5.8,7.6,1,0.00,,,0.00,WUHU216HW,2013-08-14 14:01:00,
2013-08-14 09:06:00,70.0,11.0,30.14,ESE,113,3.8,6.9,1,0.00,,,0.00,WUHU216HW,2013-08-14 14:06:00,
2013-08-14 09:11:00,71.1,11.8,30.14,SSW,203,0.4,6.3,1,0.00,,,0.00,WUHU216HW,2013-08-14 14:11:00,
2013-08-14 09:16:00,71.5,12.1,30.15,SE,135,3.4,8.5,1,0.00,,,0.00,WUHU216HW,2013-08-14 14:16:00,
2013-08-14 09:21:00,72.5,13.0,30.14,ESE,113,3.1,8.5,1,0.00,,,0.00,WUHU216HW,2013-08-14 14:21:00,
2013-08-14 09:26:00,73.1,13.4,30.14,ESE,113,5.1,6.7,1,0.00,,,0.00,WUHU216HW,2013-08-14 14:26:00,
2013-08-14 09:31:00,73.3,13.5,30.15,South,180,3.4,7.6,1,0.00,,,0.00,WUHU216HW,2013-08-14 14:31:00,
2013-08-14 09:36:00,72.9,13.2,30.15,SSE,158,5.4,7.6,1,0.00,,,0.00,WUHU216HW,2013-08-14 14:36:00,
2013-08-14 09:41:00,72.9,13.2,30.15,SSE,158,2.5,5.4,1,0.00,,,0.00,WUHU216HW,2013-08-14 14:41:00,
2013-08-14 09:46:00,74.3,14.3,30.15,SE,135,3.6,8.3,1,0.00,,,0.00,WUHU216HW,2013-08-14 14:46:00,
2013-08-14 09:51:00,74.3,14.3,30.16,ESE,113,8.3,8.3,1,0.00,,,0.00,WUHU216HW,2013-08-14 14:51:00,
2013-08-14 09:56:00,74.5,14.4,30.16,East,90,4.0,8.5,1,0.00,,,0.00,WUHU216HW,2013-08-14 14:56:00,
2013-08-14 10:01:00,74.7,14.6,30.16,North,0,5.8,8.5,1,0.00,,,0.00,WUHU216HW,2013-08-14 15:01:00,
2013-08-14 10:06:00,74.9,14.7,30.16,ESE,113,5.1,8.5,1,0.00,,,0.00,WUHU216HW,2013-08-14 15:06:00,
2013-08-14 10:11:00,75.1,14.9,30.16,ESE,113,4.9,7.2,1,0.00,,,0.00,WUHU216HW,2013-08-14 15:11:00,
2013-08-14 10:16:00,74.9,14.7,30.16,ESE,113,3.6,7.2,1,0.00,,,0.00,WUHU216HW,2013-08-14 15:16:00,
2013-08-14 10:21:00,75.6,15.2,30.16,East,90,4.5,6.9,1,0.00,,,0.00,WUHU216HW,2013-08-14 15:21:00,
2013-08-14 10:26:00,76.3,15.9,30.16,ENE,68,5.4,6.7,1,0.00,,,0.00,WUHU216HW,2013-08-14 15:26:00,
2013-08-14 10:31:00,76.5,15.9,30.16,SE,135,6.7,6.7,1,0.00,,,0.00,WUHU216HW,2013-08-14 15:31:00,
2013-08-14 10:36:00,76.1,23.9,30.16,East,90,5.4,6.9,15,0.00,,,0.00,WUHU216HW,2013-08-14 15:36:00,
2013-08-14 10:41:00,76.9,16.2,30.16,SE,135,5.4,6.9,1,0.00,,,0.00,WUHU216HW,2013-08-14 15:41:00,
2013-08-14 10:46:00,77.2,16.5,30.16,East,90,5.4,8.3,5,0.00,,,0.00,WUHU216HW,2013-08-14 15:46:00,
2013-08-14 10:51:00,77.2,26.5,30.16,ESE,113,2.2,8.3,16,0.00,,,0.00,WUHU216HW,2013-08-14 15:51:00,
2013-08-14 10:56:00,77.2,28.1,30.16,ESE,113,3.1,8.7,17,0.00,,,0.00,WUHU216HW,2013-08-14 15:56:00,
2013-08-14 11:01:00,77.4,21.6,30.17,ESE,113,5.1,8.7,13,0.00,,,0.00,WUHU216HW,2013-08-14 16:01:00,
2013-08-14 11:06:00,77.2,26.5,30.17,East,90,7.6,7.8,16,0.00,,,0.00,WUHU216HW,2013-08-14 16:06:00,
2013-08-14 11:11:00,77.4,39.7,30.17,ESE,113,8.1,9.2,26,0.00,,,0.00,WUHU216HW,2013-08-14 16:11:00,
2013-08-14 11:16:00,77.0,39.3,30.17,SE,135,4.7,10.5,26,0.00,,,0.00,WUHU216HW,2013-08-14 16:16:00,
2013-08-14 11:21:00,77.0,29.6,30.17,SE,135,4.3,10.5,18,0.00,,,0.00,WUHU216HW,2013-08-14 16:21:00,
2013-08-14 11:26:00,77.4,31.6,30.16,SE,135,6.9,8.7,19,0.00,,,0.00,WUHU216HW,2013-08-14 16:26:00,
2013-08-14 11:31:00,76.9,31.1,30.16,SE,135,5.1,9.4,19,0.00,,,0.00,WUHU216HW,2013-08-14 16:31:00,
2013-08-14 11:36:00,77.4,31.6,30.16,SE,135,5.8,9.4,19,0.00,,,0.00,WUHU216HW,2013-08-14 16:36:00,
2013-08-14 11:41:00,76.9,26.2,30.16,SE,135,2.5,8.1,16,0.00,,,0.00,WUHU216HW,2013-08-14 16:41:00,
2013-08-14 11:46:00,77.0,29.6,30.16,SE,135,2.5,6.7,18,0.00,,,0.00,WUHU216HW,2013-08-14 16:46:00,
2013-08-14 11:51:00,77.4,21.6,30.16,ESE,113,1.8,5.8,13,0.00,,,0.00,WUHU216HW,2013-08-14 16:51:00,
2013-08-14 11:57:00,77.9,27.0,30.16,East,90,5.1,5.8,16,0.00,,,0.00,WUHU216HW,2013-08-14 16:57:00,
2013-08-14 12:02:00,78.5,36.4,30.16,East,90,4.0,6.3,22,0.00,,,0.00,WUHU216HW,2013-08-14 17:02:00,
2013-08-14 12:07:00,78.1,34.8,30.16,SSE,158,4.0,8.9,21,0.00,,,0.00,WUHU216HW,2013-08-14 17:07:00,
2013-08-14 12:12:00,78.3,43.4,30.16,SE,135,4.5,10.3,29,0.00,,,0.00,WUHU216HW,2013-08-14 17:12:00,
2013-08-14 12:17:00,77.9,32.0,30.16,ESE,113,2.0,10.3,19,0.00,,,0.00,WUHU216HW,2013-08-14 17:17:00,
2013-08-14 12:22:00,78.8,40.7,30.16,SE,135,3.8,6.7,26,0.00,,,0.00,WUHU216HW,2013-08-14 17:22:00,
2013-08-14 12:27:00,79.4,43.2,30.16,ESE,113,4.7,7.2,28,0.00,,,0.00,WUHU216HW,2013-08-14 17:27:00,
2013-08-14 12:32:00,79.0,48.1,30.16,SSE,158,2.2,9.2,34,0.00,,,0.00,WUHU216HW,2013-08-14 17:32:00,
2013-08-14 12:37:00,78.3,44.4,30.15,North,0,2.5,9.4,30,0.00,,,0.00,WUHU216HW,2013-08-14 17:37:00,
2013-08-14 12:42:00,78.3,45.2,30.15,East,90,6.0,9.4,31,0.00,,,0.00,WUHU216HW,2013-08-14 17:42:00,
2013-08-14 12:47:00,77.6,39.6,30.15,East,90,4.7,7.8,26,0.00,,,0.00,WUHU216HW,2013-08-14 17:47:00,
2013-08-14 12:52:00,77.4,39.5,30.15,NE,45,2.0,7.8,26,0.00,,,0.00,WUHU216HW,2013-08-14 17:52:00,
2013-08-14 12:57:00,78.1,42.1,30.15,ENE,68,5.4,6.9,28,0.00,,,0.00,WUHU216HW,2013-08-14 17:57:00,
2013-08-14 13:02:00,78.1,47.4,30.15,SE,135,3.4,8.1,34,0.00,,,0.00,WUHU216HW,2013-08-14 18:02:00,
2013-08-14 13:07:00,79.6,49.3,30.15,ENE,68,3.4,8.1,35,0.00,,,0.00,WUHU216HW,2013-08-14 18:07:00,
2013-08-14 13:12:00,80.3,52.3,30.15,ESE,113,3.4,6.3,38,0.00,,,0.00,WUHU216HW,2013-08-14 18:12:00,
2013-08-14 13:18:00,80.5,54.6,30.15,East,90,4.3,6.3,41,0.00,,,0.00,WUHU216HW,2013-08-14 18:18:00,
2013-08-14 13:23:00,80.6,56.6,30.15,SSE,158,6.9,6.9,44,0.00,,,0.00,WUHU216HW,2013-08-14 18:23:00,
2013-08-14 13:28:00,80.3,54.5,30.15,North,0,2.5,8.5,41,0.00,,,0.00,WUHU216HW,2013-08-14 18:28:00,
2013-08-14 13:33:00,80.8,47.3,30.14,ENE,68,4.0,8.5,31,0.00,,,0.00,WUHU216HW,2013-08-14 18:33:00,
2013-08-14 13:38:00,80.8,58.1,30.15,ENE,68,6.7,7.4,46,0.00,,,0.00,WUHU216HW,2013-08-14 18:38:00,
2013-08-14 13:43:00,80.5,58.3,30.14,SE,135,1.8,7.4,47,0.00,,,0.00,WUHU216HW,2013-08-14 18:43:00,
2013-08-14 13:48:00,80.6,57.9,30.14,ESE,113,3.6,7.2,46,0.00,,,0.00,WUHU216HW,2013-08-14 18:48:00,
2013-08-14 13:53:00,79.6,56.9,30.14,ESE,113,5.1,7.8,46,0.00,,,0.00,WUHU216HW,2013-08-14 18:53:00,
2013-08-14 13:59:00,80.5,57.7,30.14,ESE,113,4.7,7.8,46,0.00,,,0.00,WUHU216HW,2013-08-14 18:59:00,
2013-08-14 14:04:00,80.6,57.9,30.14,SE,135,3.8,6.3,46,0.00,,,0.00,WUHU216HW,2013-08-14 19:04:00,
2013-08-14 14:14:00,80.8,57.4,30.14,ENE,68,2.5,5.6,45,0.00,,,0.00,WUHU216HW,2013-08-14 19:14:00,
2013-08-14 14:19:00,80.3,56.9,30.14,NE,45,4.0,4.3,45,0.00,,,0.00,WUHU216HW,2013-08-14 19:19:00,
2013-08-14 14:24:00,82.1,60.4,30.14,ENE,68,3.1,5.1,48,0.00,,,0.00,WUHU216HW,2013-08-14 19:24:00,
2013-08-14 14:29:00,82.1,59.8,30.14,SE,135,2.9,6.7,47,0.00,,,0.00,WUHU216HW,2013-08-14 19:29:00,
2013-08-14 14:35:00,81.2,58.3,30.14,East,90,3.6,6.7,46,0.00,,,0.00,WUHU216HW,2013-08-14 19:35:00,
2013-08-14 14:40:00,81.2,58.3,30.14,NE,45,5.8,6.9,46,0.00,,,0.00,WUHU216HW,2013-08-14 19:40:00,
2013-08-14 14:45:00,81.7,58.9,30.13,NE,45,3.8,6.9,46,0.00,,,0.00,WUHU216HW,2013-08-14 19:45:00,
2013-08-14 14:50:00,81.7,60.0,30.13,East,90,5.4,5.8,48,0.00,,,0.00,WUHU216HW,2013-08-14 19:50:00,
2013-08-14 14:55:00,81.4,57.9,30.13,ENE,68,3.4,7.6,45,0.00,,,0.00,WUHU216HW,2013-08-14 19:55:00,
2013-08-14 15:00:00,80.6,57.9,30.13,SE,135,5.8,9.4,46,0.00,,,0.00,WUHU216HW,2013-08-14 20:00:00,
2013-08-14 15:05:00,80.1,56.2,30.13,North,0,0.4,9.4,44,0.00,,,0.00,WUHU216HW,2013-08-14 20:05:00,
2013-08-14 15:10:00,80.3,58.8,30.13,SE,135,4.0,6.9,48,0.00,,,0.00,WUHU216HW,2013-08-14 20:10:00,
2013-08-14 15:15:00,80.5,58.3,30.12,East,90,4.0,5.4,47,0.00,,,0.00,WUHU216HW,2013-08-14 20:15:00,
2013-08-14 15:21:00,80.6,57.9,30.13,SE,135,4.0,6.7,46,0.00,,,0.00,WUHU216HW,2013-08-14 20:21:00,
2013-08-14 15:26:00,79.6,53.8,30.12,ESE,113,1.8,6.7,41,0.00,,,0.00,WUHU216HW,2013-08-14 20:26:00,
2013-08-14 15:31:00,82.4,58.9,30.12,SE,135,2.7,4.7,45,0.00,,,0.00,WUHU216HW,2013-08-14 20:31:00,
2013-08-14 15:36:00,82.6,60.8,30.11,ENE,68,4.3,7.4,48,0.00,,,0.00,WUHU216HW,2013-08-14 20:36:00,
2013-08-14 15:42:00,83.7,61.3,30.11,North,0,1.3,7.4,47,0.00,,,0.00,WUHU216HW,2013-08-14 20:42:00,
2013-08-14 15:47:00,84.2,62.5,30.11,ENE,68,4.9,4.9,48,0.00,,,0.00,WUHU216HW,2013-08-14 20:47:00,
2013-08-14 15:52:00,81.7,59.4,30.11,East,90,6.0,6.3,47,0.00,,,0.00,WUHU216HW,2013-08-14 20:52:00,
2013-08-14 15:57:00,81.2,57.7,30.11,ESE,113,1.1,6.3,45,0.00,,,0.00,WUHU216HW,2013-08-14 20:57:00,
2013-08-14 16:02:00,82.8,60.4,30.11,NE,45,2.5,6.3,47,0.00,,,0.00,WUHU216HW,2013-08-14 21:02:00,
2013-08-14 16:07:00,81.5,59.3,30.11,NE,45,1.6,7.2,47,0.00,,,0.00,WUHU216HW,2013-08-14 21:07:00,
2013-08-14 16:12:00,81.0,57.0,30.11,North,0,1.6,7.2,44,0.00,,,0.00,WUHU216HW,2013-08-14 21:12:00,
2013-08-14 16:17:00,81.7,59.4,30.11,ESE,113,4.0,4.0,47,0.00,,,0.00,WUHU216HW,2013-08-14 21:17:00,
2013-08-14 16:22:00,82.3,60.0,30.11,ESE,113,5.8,6.3,47,0.00,,,0.00,WUHU216HW,2013-08-14 21:22:00,
2013-08-14 16:27:00,80.3,58.8,30.11,East,90,3.4,7.8,48,0.00,,,0.00,WUHU216HW,2013-08-14 21:27:00,
2013-08-14 16:32:00,79.4,56.7,30.11,NE,45,3.1,7.8,46,0.00,,,0.00,WUHU216HW,2013-08-14 21:32:00,
2013-08-14 16:37:00,78.7,56.1,30.11,NE,45,2.9,5.4,46,0.00,,,0.00,WUHU216HW,2013-08-14 21:37:00,
2013-08-14 16:42:00,78.3,57.0,30.11,East,90,1.6,5.4,48,0.00,,,0.00,WUHU216HW,2013-08-14 21:42:00,
2013-08-14 16:48:00,80.6,59.0,30.10,SE,135,1.6,5.4,48,0.00,,,0.00,WUHU216HW,2013-08-14 21:48:00,
2013-08-14 16:53:00,81.5,59.9,30.10,ENE,68,2.7,6.9,48,0.00,,,0.00,WUHU216HW,2013-08-14 21:53:00,
2013-08-14 16:58:00,79.2,56.5,30.10,ENE,68,1.3,6.9,46,0.00,,,0.00,WUHU216HW,2013-08-14 21:58:00,
2013-08-14 17:03:00,79.6,55.6,30.11,East,90,2.2,3.8,44,0.00,,,0.00,WUHU216HW,2013-08-14 22:03:00,
2013-08-14 17:08:00,81.7,59.4,30.10,ENE,68,4.9,5.8,47,0.00,,,0.00,WUHU216HW,2013-08-14 22:08:00,
2013-08-14 17:13:00,83.2,60.8,30.10,NE,45,4.0,5.8,47,0.00,,,0.00,WUHU216HW,2013-08-14 22:13:00,
2013-08-14 17:18:00,83.2,60.1,30.10,East,90,6.5,7.8,46,0.00,,,0.00,WUHU216HW,2013-08-14 22:18:00,
2013-08-14 17:23:00,82.6,60.3,30.10,East,90,3.8,7.8,47,0.00,,,0.00,WUHU216HW,2013-08-14 22:23:00,
2013-08-14 17:28:00,82.4,60.1,30.11,ENE,68,6.7,7.6,47,0.00,,,0.00,WUHU216HW,2013-08-14 22:28:00,
2013-08-14 17:33:00,82.4,60.7,30.11,ENE,68,2.9,7.6,48,0.00,,,0.00,WUHU216HW,2013-08-14 22:33:00,
2013-08-14 17:38:00,83.0,61.2,30.10,NE,45,1.3,5.6,48,0.00,,,0.00,WUHU216HW,2013-08-14 22:38:00,
2013-08-14 17:43:00,83.9,61.5,30.10,ENE,68,1.3,4.7,47,0.00,,,0.00,WUHU216HW,2013-08-14 22:43:00,
2013-08-14 17:48:00,83.7,60.7,30.10,ENE,68,6.7,7.6,46,0.00,,,0.00,WUHU216HW,2013-08-14 22:48:00,
2013-08-14 17:53:00,83.5,60.5,30.10,ENE,68,3.6,7.6,46,0.00,,,0.00,WUHU216HW,2013-08-14 22:53:00,
2013-08-14 17:58:00,83.2,60.8,30.10,ENE,68,1.3,6.7,47,0.00,,,0.00,WUHU216HW,2013-08-14 22:58:00,
2013-08-14 18:03:00,83.9,61.5,30.10,North,0,0.4,4.9,47,0.00,,,0.00,WUHU216HW,2013-08-14 23:03:00,
2013-08-14 18:08:00,82.8,60.4,30.10,North,0,2.5,4.3,47,0.00,,,0.00,WUHU216HW,2013-08-14 23:08:00,
2013-08-14 18:13:00,80.8,59.2,30.09,NE,45,0.4,4.3,48,0.00,,,0.00,WUHU216HW,2013-08-14 23:13:00,
2013-08-14 18:18:00,79.0,57.6,30.09,ESE,113,0.4,4.7,48,0.00,,,0.00,WUHU216HW,2013-08-14 23:18:00,
2013-08-14 18:23:00,78.3,56.3,30.09,NE,45,1.1,4.7,47,0.00,,,0.00,WUHU216HW,2013-08-14 23:23:00,
2013-08-14 18:28:00,78.5,56.5,30.09,ENE,68,4.5,4.5,47,0.00,,,0.00,WUHU216HW,2013-08-14 23:28:00,
2013-08-14 18:33:00,78.3,56.3,30.09,East,90,1.8,4.5,47,0.00,,,0.00,WUHU216HW,2013-08-14 23:33:00,
2013-08-14 18:38:00,77.4,55.5,30.09,NE,45,5.8,5.8,47,0.00,,,0.00,WUHU216HW,2013-08-14 23:38:00,
2013-08-14 18:43:00,77.0,53.4,30.09,NE,45,1.8,5.8,44,0.00,,,0.00,WUHU216HW,2013-08-14 23:43:00,
2013-08-14 18:48:00,77.0,54.6,30.09,ESE,113,2.2,5.8,46,0.00,,,0.00,WUHU216HW,2013-08-14 23:48:00,
2013-08-14 18:53:00,76.1,53.2,30.09,East,90,2.7,3.4,45,0.00,,,0.00,WUHU216HW,2013-08-14 23:53:00,
2013-08-14 18:58:00,75.4,50.7,30.09,ESE,113,2.5,3.6,42,0.00,,,0.00,WUHU216HW,2013-08-14 23:58:00,
2013-08-14 19:04:00,74.9,49.0,30.08,East,90,2.0,4.5,40,0.00,,,0.00,WUHU216HW,2013-08-15 00:04:00,
2013-08-14 19:09:00,74.7,48.1,30.08,ENE,68,1.8,4.5,39,0.00,,,0.00,WUHU216HW,2013-08-15 00:09:00,
2013-08-14 19:14:00,73.8,43.5,30.08,ENE,68,1.8,4.3,34,0.00,,,0.00,WUHU216HW,2013-08-15 00:14:00,
2013-08-14 19:19:00,73.4,40.1,30.08,ENE,68,1.1,4.3,30,0.00,,,0.00,WUHU216HW,2013-08-15 00:19:00,
2013-08-14 19:24:00,73.1,36.8,30.08,ENE,68,1.1,2.7,27,0.00,,,0.00,WUHU216HW,2013-08-15 00:24:00,
2013-08-14 19:29:00,72.7,33.5,30.08,ENE,68,1.1,2.5,24,0.00,,,0.00,WUHU216HW,2013-08-15 00:29:00,
2013-08-14 19:34:00,72.2,30.0,30.08,East,90,0.9,2.9,21,0.00,,,0.00,WUHU216HW,2013-08-15 00:34:00,
2013-08-14 19:39:00,71.8,27.0,30.08,NE,45,1.3,2.9,19,0.00,,,0.00,WUHU216HW,2013-08-15 00:39:00,
2013-08-14 19:44:00,71.5,21.8,30.09,ENE,68,1.6,2.7,16,0.00,,,0.00,WUHU216HW,2013-08-15 00:44:00,
2013-08-14 19:49:00,70.9,16.6,30.09,ENE,68,0.4,2.5,13,0.00,,,0.00,WUHU216HW,2013-08-15 00:49:00,
2013-08-14 19:54:00,70.6,14.6,30.09,ENE,68,0.2,1.8,12,0.00,,,0.00,WUHU216HW,2013-08-15 00:54:00,
2013-08-14 19:59:00,70.0,11.0,30.09,ENE,68,0.0,0.9,8,0.00,,,0.00,WUHU216HW,2013-08-15 00:59:00,
2013-08-14 20:04:00,69.5,10.5,30.09,East,90,1.1,2.5,1,0.00,,,0.00,WUHU216HW,2013-08-15 01:04:00,
2013-08-14 20:09:00,69.1,10.3,30.09,East,90,1.8,3.4,1,0.00,,,0.00,WUHU216HW,2013-08-15 01:09:00,
2013-08-14 20:14:00,68.8,10.1,30.09,East,90,1.1,3.4,1,0.00,,,0.00,WUHU216HW,2013-08-15 01:14:00,
2013-08-14 20:19:00,68.4,9.8,30.09,East,90,1.1,1.6,1,0.00,,,0.00,WUHU216HW,2013-08-15 01:19:00,
2013-08-14 20:24:00,67.9,9.4,30.09,East,90,0.2,1.6,1,0.00,,,0.00,WUHU216HW,2013-08-15 01:24:00,
2013-08-14 20:29:00,67.3,9.0,30.09,East,90,0.4,1.1,1,0.00,,,0.00,WUHU216HW,2013-08-15 01:29:00,
2013-08-14 20:34:00,67.0,8.6,30.09,East,90,0.4,1.1,1,0.00,,,0.00,WUHU216HW,2013-08-15 01:34:00,
2013-08-14 20:39:00,66.6,8.4,30.09,ESE,113,0.0,1.1,1,0.00,,,0.00,WUHU216HW,2013-08-15 01:39:00,
2013-08-14 20:44:00,66.2,8.1,30.09,ESE,113,0.4,0.9,1,0.00,,,0.00,WUHU216HW,2013-08-15 01:44:00,
2013-08-14 20:49:00,65.9,7.8,30.09,ESE,113,1.6,1.6,1,0.00,,,0.00,WUHU216HW,2013-08-15 01:49:00,
2013-08-14 20:54:00,65.7,7.7,30.09,East,90,0.9,2.9,1,0.00,,,0.00,WUHU216HW,2013-08-15 01:54:00,
2013-08-14 20:59:00,65.5,7.6,30.09,ENE,68,1.1,2.9,1,0.00,,,0.00,WUHU216HW,2013-08-15 01:59:00,
2013-08-14 21:04:00,65.3,7.4,30.10,East,90,1.1,2.0,1,0.00,,,0.00,WUHU216HW,2013-08-15 02:04:00,
2013-08-14 21:09:00,65.2,7.2,30.10,ENE,68,0.7,1.8,1,0.00,,,0.00,WUHU216HW,2013-08-15 02:09:00,
2013-08-14 21:14:00,64.8,6.9,30.10,ENE,68,1.1,1.6,1,0.00,,,0.00,WUHU216HW,2013-08-15 02:14:00,
2013-08-14 21:19:00,64.4,6.7,30.10,ENE,68,0.4,1.1,1,0.00,,,0.00,WUHU216HW,2013-08-15 02:19:00,
2013-08-14 21:24:00,64.1,6.4,30.11,ENE,68,0.2,1.1,1,0.00,,,0.00,WUHU216HW,2013-08-15 02:24:00,
2013-08-14 21:29:00,63.9,6.3,30.11,ESE,113,0.0,1.6,1,0.00,,,0.00,WUHU216HW,2013-08-15 02:29:00,
2013-08-14 21:34:00,63.5,6.0,30.11,East,90,0.0,1.6,1,0.00,,,0.00,WUHU216HW,2013-08-15 02:34:00,
2013-08-14 21:39:00,63.2,5.8,30.11,East,90,0.7,1.6,1,0.00,,,0.00,WUHU216HW,2013-08-15 02:39:00,
2013-08-14 21:44:00,62.8,5.5,30.11,ENE,68,0.2,1.3,1,0.00,,,0.00,WUHU216HW,2013-08-15 02:44:00,
2013-08-14 21:49:00,62.8,5.5,30.11,ENE,68,2.9,2.9,1,0.00,,,0.00,WUHU216HW,2013-08-15 02:49:00,
2013-08-14 21:54:00,62.8,5.5,30.11,East,90,1.1,2.9,1,0.00,,,0.00,WUHU216HW,2013-08-15 02:54:00,
2013-08-14 21:59:00,63.0,5.7,30.12,East,90,0.7,2.9,1,0.00,,,0.00,WUHU216HW,2013-08-15 02:59:00,
2013-08-14 22:04:00,63.0,5.7,30.12,ESE,113,1.6,2.7,1,0.00,,,0.00,WUHU216HW,2013-08-15 03:04:00,
2013-08-14 22:09:00,63.0,5.7,30.12,ESE,113,3.4,3.4,1,0.00,,,0.00,WUHU216HW,2013-08-15 03:09:00,
2013-08-14 22:14:00,63.0,5.7,30.12,ESE,113,0.7,3.4,1,0.00,,,0.00,WUHU216HW,2013-08-15 03:14:00,
2013-08-14 22:19:00,62.8,5.5,30.12,ESE,113,0.9,3.4,1,0.00,,,0.00,WUHU216HW,2013-08-15 03:19:00,
2013-08-14 22:24:00,62.5,5.2,30.12,ESE,113,0.9,2.0,1,0.00,,,0.00,WUHU216HW,2013-08-15 03:24:00,
2013-08-14 22:29:00,62.5,5.2,30.12,East,90,0.2,2.2,1,0.00,,,0.00,WUHU216HW,2013-08-15 03:29:00,
2013-08-14 22:34:00,62.3,5.1,30.12,East,90,1.6,2.2,1,0.00,,,0.00,WUHU216HW,2013-08-15 03:34:00,
2013-08-14 22:39:00,61.9,4.9,30.12,ESE,113,0.4,1.8,1,0.00,,,0.00,WUHU216HW,2013-08-15 03:39:00,
2013-08-14 22:44:00,61.6,4.5,30.12,ESE,113,0.4,1.8,1,0.00,,,0.00,WUHU216HW,2013-08-15 03:44:00,
2013-08-14 22:49:00,61.6,4.5,30.12,ESE,113,0.4,1.8,1,0.00,,,0.00,WUHU216HW,2013-08-15 03:49:00,
2013-08-14 22:54:00,61.6,4.5,30.12,East,90,1.1,2.5,1,0.00,,,0.00,WUHU216HW,2013-08-15 03:54:00,
2013-08-14 22:59:00,61.6,4.5,30.12,ESE,113,1.1,2.5,1,0.00,,,0.00,WUHU216HW,2013-08-15 03:59:00,
2013-08-14 23:01:00,61.6,4.5,30.12,ESE,113,0.9,2.5,1,0.00,,,0.00,WUHU216HW,2013-08-15 04:01:00,
2013-08-14 23:06:00,61.4,4.4,30.12,ESE,113,0.4,2.5,1,0.00,,,0.00,WUHU216HW,2013-08-15 04:06:00,
2013-08-14 23:11:00,61.2,4.2,30.12,East,90,1.1,2.5,1,0.00,,,0.00,WUHU216HW,2013-08-15 04:11:00,
2013-08-14 23:16:00,60.8,4.0,30.12,ENE,68,0.4,1.1,1,0.00,,,0.00,WUHU216HW,2013-08-15 04:16:00,
2013-08-14 23:21:00,60.7,3.8,30.12,East,90,0.7,1.3,1,0.00,,,0.00,WUHU216HW,2013-08-15 04:21:00,
2013-08-14 23:26:00,60.5,3.7,30.12,East,90,0.4,1.3,1,0.00,,,0.00,WUHU216HW,2013-08-15 04:26:00,
2013-08-14 23:31:00,60.3,3.5,30.12,East,90,0.4,0.9,1,0.00,,,0.00,WUHU216HW,2013-08-15 04:31:00,
2013-08-14 23:36:00,59.9,3.2,30.12,East,90,0.4,1.1,1,0.00,,,0.00,WUHU216HW,2013-08-15 04:36:00,
2013-08-14 23:41:00,59.8,3.1,30.12,East,90,1.1,2.0,1,0.00,,,0.00,WUHU216HW,2013-08-15 04:41:00,
2013-08-14 23:46:00,59.6,3.0,30.12,ESE,113,1.1,2.0,1,0.00,,,0.00,WUHU216HW,2013-08-15 04:46:00,
2013-08-14 23:51:00,59.6,3.0,30.12,ESE,113,0.0,1.8,1,0.00,,,0.00,WUHU216HW,2013-08-15 04:51:00,
2013-08-14 23:56:00,59.4,2.8,30.12,East,90,0.4,1.1,1,0.00,,,0.00,WUHU216HW,2013-08-15 04:56:00,